Stevens Point, WI

4:33 PM CDT on October 23, 2017 (GMT -0500)
Stevens Point Municipal

Weather History for KSTE - May, 2014

Change the Weather History Date:

Sunday, May 25, 2014

  Actual Average Record
Temperature  
Mean Temperature 61 °F -  
Max Temperature 80 °F 69 °F 88 °F (1977)
Min Temperature 42 °F 47 °F 35 °F (1988)
Degree Days  
Heating Degree Days 4    
Growing Degree Days 11 (Base 50)    
Moisture  
Dew Point 45 °F    
Average Humidity 55    
Maximum Humidity 95    
Minimum Humidity 23    
Precipitation  
Precipitation 0.00 in - - ()
Sea Level Pressure  
Sea Level Pressure 30.07 in    
Wind  
Wind Speed 2 mph (SW)    
Max Wind Speed 12 mph    
Max Gust Speed 17 mph    
Visibility 10 miles    
Events      
Averages and records for this station are not official NWS values.
T = Trace of Precipitation, MM = Missing Value Source: NWS Daily Summary

Daily Weather History Graph

Daily Weather History Graph

Search for Another Location

Airport or City:

Trip Planner

Search our weather history database for the weather conditions in past years. The results will help you decide how hot, cold, wet, or windy it might be!

Date:

Astronomy

May. 25, 2014 Rise Set
Actual Time 5:20 AM CDT 8:29 PM CDT
Civil Twilight 4:45 AM CDT 9:04 PM CDT
Nautical Twilight 4:00 AM CDT 9:50 PM CDT
Astronomical Twilight 3:06 AM CDT 10:45 PM CDT
Moon 3:33 AM CDT (5/25) 5:23 PM CDT (5/25)
Length of Visible Light 16h 19m
Length of Day
15h 08m
Waning Crescent, 10% of the Moon is Illuminated
May 25
Waning Crescent
May 28
New
Jun 5
First Quarter
Jun 12
Full
Jun 19
Last Quarter

Hourly Weather History & Observations

Time (CDT) Temp. Dew Point Humidity Pressure Visibility Wind Dir Wind Speed Gust Speed Precip Events Conditions
12:15 AM 54.0 °F 46.4 °F 76% 30.13 in 10.0 mi Calm Calm - N/A   Clear
12:35 AM 50.9 °F 44.6 °F 79% 30.13 in 10.0 mi Calm Calm - N/A   Clear
12:55 AM 51.1 °F 44.6 °F 78% 30.13 in 10.0 mi Calm Calm - N/A   Clear
1:15 AM 49.3 °F 43.9 °F 82% 30.13 in 10.0 mi Calm Calm - N/A   Clear
1:35 AM 48.7 °F 45.9 °F 90% 30.13 in 10.0 mi Calm Calm - N/A   Clear
1:55 AM 48.4 °F 43.3 °F 83% 30.13 in 10.0 mi Calm Calm - N/A   Clear
2:15 AM 48.0 °F 44.4 °F 87% 30.13 in 10.0 mi Calm Calm - N/A   Clear
2:35 AM 47.7 °F 44.1 °F 87% 30.13 in 10.0 mi Calm Calm - N/A   Clear
2:55 AM 47.3 °F 43.7 °F 87% 30.13 in 10.0 mi Calm Calm - N/A   Clear
3:15 AM 46.2 °F 43.5 °F 90% 30.14 in 10.0 mi Calm Calm - N/A   Clear
3:35 AM 45.0 °F 43.0 °F 93% 30.14 in 10.0 mi Calm Calm - N/A   Clear
3:55 AM 45.5 °F 42.4 °F 89% 30.13 in 10.0 mi Calm Calm - N/A   Clear
4:15 AM 44.2 °F 42.1 °F 92% 30.13 in 10.0 mi Calm Calm - N/A   Clear
4:35 AM 45.7 °F 43.2 °F 91% 30.13 in 10.0 mi Calm Calm - N/A   Clear
4:55 AM 43.5 °F 41.9 °F 94% 30.13 in 10.0 mi Calm Calm - N/A   Clear
5:15 AM 43.3 °F 41.5 °F 93% 30.13 in 10.0 mi Calm Calm - N/A   Clear
5:35 AM 42.4 °F 41.2 °F 95% 30.13 in 10.0 mi Calm Calm - N/A   Clear
5:55 AM 43.9 °F 41.9 °F 93% 30.13 in 10.0 mi Calm Calm - N/A   Clear
6:15 AM 43.9 °F 41.4 °F 91% 30.13 in 10.0 mi Calm Calm - N/A   Clear
6:35 AM 46.4 °F 44.2 °F 92% 30.12 in 10.0 mi Calm Calm - N/A   Clear
6:55 AM 50.0 °F 45.9 °F 86% 30.12 in 10.0 mi Calm Calm - N/A   Clear
7:15 AM 54.3 °F 46.6 °F 75% 30.13 in 10.0 mi Calm Calm - N/A   Clear
7:35 AM 57.9 °F 46.8 °F 66% 30.13 in 10.0 mi Calm Calm - N/A   Clear
7:55 AM 61.2 °F 46.0 °F 58% 30.13 in 10.0 mi South 3.5 mph - N/A   Clear
8:15 AM 63.9 °F 45.3 °F 51% 30.13 in 10.0 mi SSW 5.8 mph - N/A   Clear
8:35 AM 65.3 °F 44.6 °F 47% 30.13 in 10.0 mi SW 5.8 mph - N/A   Clear
9:15 AM 68.0 °F 45.0 °F 43% 30.13 in 10.0 mi SW 6.9 mph - N/A   Clear
9:55 AM 69.6 °F 45.3 °F 42% 30.13 in 10.0 mi SW 6.9 mph - N/A   Clear
10:15 AM 71.1 °F 45.1 °F 39% 30.12 in 10.0 mi WSW 6.9 mph - N/A   Clear
10:35 AM 71.4 °F 45.3 °F 39% 30.12 in 10.0 mi WSW 8.1 mph - N/A   Clear
10:55 AM 71.8 °F 45.0 °F 38% 30.11 in 10.0 mi West 3.5 mph - N/A   Clear
11:15 AM 73.2 °F 46.2 °F 38% 30.11 in 10.0 mi SSW 4.6 mph - N/A   Clear
11:55 AM 74.1 °F 44.1 °F 34% 30.10 in 10.0 mi WSW 6.9 mph - N/A   Clear
12:15 PM 75.4 °F 45.7 °F 35% 30.09 in 10.0 mi WSW 10.4 mph - N/A   Clear
12:35 PM 75.6 °F 45.1 °F 34% 30.09 in 10.0 mi SSW 10.4 mph - N/A   Clear
12:55 PM 76.1 °F 45.0 °F 33% 30.08 in 10.0 mi SSW 6.9 mph - N/A   Clear
1:15 PM 76.8 °F 44.4 °F 32% 30.07 in 10.0 mi South 6.9 mph - N/A   Clear
1:55 PM 78.3 °F 44.4 °F 30% 30.06 in 10.0 mi SW 9.2 mph - N/A   Clear
2:15 PM 78.1 °F 42.6 °F 28% 30.05 in 10.0 mi SW 3.5 mph - N/A   Clear
2:35 PM 79.2 °F 41.0 °F 26% 30.04 in 10.0 mi SW 10.4 mph - N/A   Clear
2:55 PM 79.7 °F 38.3 °F 23% 30.03 in 10.0 mi WSW 11.5 mph 17.3 mph N/A   Clear
3:15 PM 79.5 °F 40.3 °F 25% 30.03 in 10.0 mi Calm Calm - N/A   Clear
3:35 PM 80.1 °F 42.6 °F 26% 30.02 in 10.0 mi West 6.9 mph 17.3 mph N/A   Clear
3:55 PM 80.6 °F 43.0 °F 26% 30.01 in 10.0 mi WSW 6.9 mph - N/A   Clear
4:15 PM 80.4 °F 43.3 °F 27% 30.01 in 10.0 mi SSW 9.2 mph - N/A   Clear
4:35 PM 80.6 °F 44.8 °F 28% 30.01 in 10.0 mi WSW 6.9 mph - N/A   Clear
4:55 PM 80.1 °F 45.3 °F 29% 30.00 in 10.0 mi SW 8.1 mph 16.1 mph N/A   Clear
5:15 PM 79.5 °F 45.1 °F 30% 29.99 in 10.0 mi SSW 8.1 mph - N/A   Clear
5:35 PM 80.1 °F 45.7 °F 30% 29.98 in 10.0 mi SSW 6.9 mph - N/A   Clear
5:55 PM 79.2 °F 45.9 °F 31% 29.98 in 10.0 mi SSW 9.2 mph - N/A   Clear
6:15 PM 78.8 °F 45.7 °F 31% 29.97 in 10.0 mi SW 10.4 mph - N/A   Clear
6:35 PM 79.2 °F 45.9 °F 31% 29.98 in 10.0 mi SW 5.8 mph - N/A   Clear
6:55 PM 78.1 °F 46.8 °F 33% 29.98 in 10.0 mi SW 6.9 mph - N/A   Clear
7:15 PM 78.3 °F 47.3 °F 34% 29.98 in 10.0 mi South 9.2 mph - N/A   Clear
7:35 PM 77.0 °F 48.0 °F 36% 29.97 in 10.0 mi SSW 9.2 mph - N/A   Clear
7:55 PM 74.7 °F 48.4 °F 39% 29.98 in 10.0 mi SSW 4.6 mph - N/A   Clear
8:15 PM 72.5 °F 48.7 °F 43% 29.98 in 10.0 mi South 3.5 mph - N/A   Clear
8:35 PM 72.3 °F 49.1 °F 44% 29.98 in 10.0 mi South 3.5 mph - N/A   Clear
8:55 PM 70.2 °F 49.5 °F 48% 29.98 in 10.0 mi South 3.5 mph - N/A   Clear
9:15 PM 68.4 °F 50.0 °F 52% 29.99 in 10.0 mi Calm Calm - N/A   Scattered Clouds
9:35 PM 69.1 °F 50.4 °F 51% 30.00 in 10.0 mi Calm Calm - N/A   Overcast
9:55 PM 69.3 °F 51.1 °F 52% 30.01 in 10.0 mi Calm Calm - N/A   Overcast
10:15 PM 69.3 °F 51.6 °F 53% 30.01 in 10.0 mi South 3.5 mph - N/A   Overcast
10:35 PM 69.1 °F 51.8 °F 54% 30.00 in 10.0 mi Calm Calm - N/A   Overcast
10:55 PM 69.4 °F 51.1 °F 52% 29.99 in 10.0 mi Calm Calm - N/A   Overcast
11:15 PM 69.1 °F 51.8 °F 54% 29.99 in 10.0 mi Calm Calm - N/A   Overcast
11:35 PM 67.6 °F 52.7 °F 59% 29.99 in 10.0 mi Calm Calm - N/A   Overcast
11:55 PM 68.0 °F 52.0 °F 56% 29.99 in 10.0 mi Calm Calm - N/A   Overcast